Home   Weather   Maple Ridge   Past weeks

Flag for Canada Past Weather in Maple Ridge, British Columbia, Canada — Yesterday and Last 2 Weeks

Now
28 °F

Chilly.


Feels Like: 19 °F
Forecast: 17 / 29 °F
Wind: 9 mph from East

Location: P. Meadows Coastal Station

Current Time: Dec 7, 2016 at 12:53:05 am

Latest Report: Dec 7, 2016 at 12:00 am


Visibility: N/A

Pressure: 30.45 "Hg

Humidity: 58%

Dew Point: 15 °F

Location of Maple RidgeLocation

Past Weather in Maple Ridge — Graph

°F

Maple Ridge Temperature Yesterday

Maximum temperature yesterday: 37 °F (at 2:00 pm)
Minimum temperature yesterday: 28 °F (at 11:00 pm)
Average temperature yesterday: 32 °F

High & Low Weather Summary for the Past Weeks

 TemperatureHumidityPressure
High50 °F (Nov 24, 3:00 am)100% (Nov 27, 1:00 pm)30.43 "Hg (Nov 27, 1:00 pm)
Low28 °F (Dec 6, 11:00 pm)50% (Dec 6, 2:00 pm)29.42 "Hg (Nov 27, 9:00 pm)
Average41 °F88%29.95 "Hg
* Reported Nov 21 11:00 pm — Dec 6 11:00 pm, Maple Ridge, Weather by CustomWeather, © 2016

Note: Actual official high and low records may vary slightly from our data, if they occured in-between our weather recording intervals... More about our weather records

Advertising

Maple Ridge Weather History for the Previous 24 Hours

Scroll right to see more
 ConditionsComfort  
Time TempWeatherWind HumidityBarometerVisibility
11:00 pm
Tue, Dec 6
28 °FChilly.8 mph56%30.43 "HgN/A
10:00 pm28 °FChilly.10 mph56%30.40 "HgN/A
9:00 pm29 °FChilly.7 mph59%30.38 "HgN/A
8:00 pm30 °FChilly.8 mph59%30.36 "HgN/A
7:00 pm31 °FChilly.7 mph62%30.34 "HgN/A
6:00 pm32 °FChilly.5 mph62%30.34 "HgN/A
4:00 pm34 °FChilly.8 mph54%30.29 "HgN/A
3:00 pm36 °FChilly.9 mph50%30.27 "HgN/A
2:00 pm37 °FChilly.8 mph50%30.25 "HgN/A
1:00 pm37 °FChilly.9 mph51%30.24 "HgN/A
11:00 am36 °FChilly.8 mph57%30.23 "HgN/A
9:00 am33 °FChilly.2 mph66%30.20 "HgN/A
8:00 am32 °FChilly.7 mph66%30.17 "HgN/A
7:00 am29 °FChilly.1 mph77%30.16 "HgN/A
6:00 am33 °FChilly.5 mph63%30.14 "HgN/A
5:00 am32 °FChilly.2 mph74%30.13 "HgN/A
4:00 am34 °FChilly.5 mph65%30.12 "HgN/A
3:00 am34 °FChilly.3 mph68%30.11 "HgN/A
2:00 am34 °FChilly.5 mph72%30.09 "HgN/A
1:00 am32 °FChilly.3 mph89%30.08 "HgN/A
12:00 am31 °FChilly.1 mph96%30.08 "HgN/A
Weather by CustomWeather, © 2016

See weather overviewHow to use our weather pages